DW1482 Weather Reports


Display with metric or nautical units.
time (UTC)temp
F
wind
direction
speed
MPH
gust
MPH
rain 1hr
in
rain 24hr
in
rain mn
in
humidity
%
barometer
mb
20260904210028 88 69 6.0 14.0 0.00 0.00 0.00 48 1011.5
20260904204532 87 163 8.0 16.0 0.00 0.00 0.00 54 1011.3
20260904203040 87 55 7.0 15.0 0.00 0.00 0.00 59 1011.7
20260904201537 86 107 3.0 11.0 0.00 0.00 0.00 62 1012.2
20260904200031 86 78 3.0 12.0 0.00 0.00 0.00 63 1012.5
20260904194531 86 98 2.0 6.0 0.00 0.00 0.00 63 1012.7
20260904193035 85 109 2.0 7.0 0.00 0.00 0.00 65 1012.9
20260904191537 84 67 1.0 6.0 0.00 0.00 0.00 67 1013.2
20260904190030 83 119 2.0 7.0 0.00 0.00 0.00 67 1013.2
20260904184511 83 87 2.0 6.0 0.00 0.00 0.00 66 1013.1
20260904183014 82 115 1.0 7.0 0.00 0.00 0.00 69 1013.3
20260904181514 81 114 0.0 6.0 0.00 0.00 0.00 71 1013.3
20260904180016 80 80 0.0 9.0 0.00 0.00 0.00 74 1013.2
20260904174519 78 132 2.0 8.0 0.00 0.00 0.00 74 1013.2
20260904173020 77 101 2.0 7.0 0.00 0.00 0.00 74 1013.2
20260904171530 76 30 2.0 8.0 0.00 0.00 0.00 76 1013.1
20260904170024 75 53 1.0 8.0 0.00 0.00 0.00 77 1013.2
20260904164523 73 67 3.0 11.0 0.00 0.00 0.00 80 1013.3
20260904163022 71 69 4.0 9.0 0.00 0.00 0.00 81 1013.3
20260904161522 71 83 2.0 7.0 0.00 0.00 0.00 84 1013.3
20260904160034 69 90 3.0 8.0 0.00 0.00 0.00 85 1013.3
20260904154526 67 75 1.0 5.0 0.00 0.00 0.00 88 1013.3
20260904153026 65 73 1.0 8.0 0.00 0.00 0.00 92 1013.1
20260904151527 64 84 2.0 6.0 0.00 0.00 0.00 94 1013.0
20260904150039 64 77 1.0 6.0 0.00 0.00 0.00 94 1013.0
20260904144529 63 79 0.0 0.0 0.00 0.00 0.00 94 1013.0
20260904143031 63 74 2.0 6.0 0.00 0.00 0.00 94 1012.8
20260904141534 62 49 3.0 7.0 0.00 0.00 0.00 94 1012.4
20260904140031 62 59 2.0 7.0 0.00 0.00 0.00 94 1012.4
20260904134530 61 79 2.0 8.0 0.00 0.00 0.00 94 1012.2
20260904133030 61 74 3.0 8.0 0.00 0.00 0.00 94 1012.1
20260904131528 60 59 1.0 8.0 0.00 0.00 0.00 93 1012.2
20260904130030 60 51 3.0 9.0 0.00 0.00 0.00 93 1012.0
20260904124517 61 51 4.0 10.0 0.00 0.00 0.00 93 1011.9
20260904123002 60 65 2.0 5.0 0.00 0.00 0.00 93 1011.7
20260904121508 60 55 2.0 7.0 0.00 0.00 0.00 93 1011.7
20260904120017 60 25 1.0 11.0 0.00 0.00 0.00 92 1011.6
20260904114527 60 17 5.0 11.0 0.00 0.00 0.00 92 1011.6
20260904113006 60 30 2.0 5.0 0.00 0.00 0.00 92 1011.5
20260904111512 60 27 2.0 6.0 0.00 0.00 0.00 92 1011.3
20260904110023 60 24 1.0 4.0 0.00 0.00 0.00 91 1011.3
20260904104527 60 19 2.0 5.0 0.00 0.00 0.00 91 1011.3
20260904103037 61 49 0.0 4.0 0.00 0.00 0.00 91 1011.2
20260904101512 61 37 2.0 6.0 0.00 0.00 0.00 91 1011.0
20260904100020 61 40 0.0 5.0 0.00 0.00 0.00 91 1010.9
20260904094533 61 48 1.0 3.0 0.00 0.00 0.00 90 1010.7
20260904093033 62 47 2.0 5.0 0.00 0.00 0.00 90 1010.7
20260904091511 62 30 0.0 7.0 0.00 0.00 0.00 90 1010.5
20260904090019 63 44 1.0 6.0 0.00 0.00 0.00 89 1010.4
20260904084526 63 49 0.0 4.0 0.00 0.00 0.00 89 1010.5
20260904083032 63 51 0.0 4.0 0.00 0.00 0.00 89 1010.6
20260904081517 64 92 1.0 4.0 0.00 0.00 0.00 88 1010.3
20260904080023 64 103 0.0 3.0 0.00 0.00 0.00 87 1010.5
20260904074558 65 103 0.0 4.0 0.00 0.00 0.00 87 1010.4
20260904073028 65 67 0.0 8.0 0.00 0.00 0.00 87 1010.2
20260904071519 65 71 3.0 7.0 0.00 0.00 0.00 87 1009.9
20260904070024 66 54 3.0 6.0 0.00 0.00 0.00 86 1009.7
20260904064530 66 44 2.0 6.0 0.00 0.00 0.00 85 1009.8
20260904063034 67 36 1.0 8.0 0.00 0.00 0.00 85 1009.8
20260904061503 67 58 3.0 10.0 0.00 0.00 0.00 84 1009.7
20260904060005 67 59 3.0 9.0 0.00 0.00 0.00 85 1009.6
20260904054509 67 36 4.0 8.0 0.00 0.00 0.00 85 1009.5
20260904053014 67 53 3.0 6.0 0.00 0.00 0.00 86 1009.6
20260904051509 67 53 3.0 9.0 0.00 0.00 0.00 85 1009.6
20260904050004 68 31 2.0 9.0 0.00 0.00 0.00 85 1009.4
20260904044511 68 42 0.0 1.0 0.00 0.00 0.00 85 1008.8
20260904043014 68 42 0.0 5.0 0.00 0.00 0.00 84 1008.7
20260904041503 69 50 0.0 6.0 0.00 0.00 0.00 84 1008.7
20260904040003 70 52 0.0 3.0 0.00 0.00 0.00 83 1008.7
20260904034508 70 52 0.0 4.0 0.00 0.00 0.00 81 1008.5
20260904033016 71 52 1.0 5.0 0.00 0.00 0.00 81 1008.6
20260904031526 72 55 2.0 6.0 0.00 0.00 0.00 80 1008.4
20260904030003 72 56 0.0 5.0 0.00 0.00 0.00 79 1008.4
20260904024509 73 43 3.0 7.0 0.00 0.00 0.00 78 1008.2
20260904023025 74 23 3.0 9.0 0.00 0.00 0.00 77 1007.9
20260904021534 75 27 1.0 9.0 0.00 0.00 0.00 75 1007.9
20260904020004 76 38 2.0 9.0 0.00 0.00 0.00 72 1007.6
20260904014512 78 28 3.0 9.0 0.00 0.00 0.00 71 1007.2
20260904013020 80 17 5.0 11.0 0.00 0.00 0.00 69 1007.1
20260904011533 81 20 4.0 11.0 0.00 0.00 0.00 66 1007.0
20260904010007 84 47 2.0 9.0 0.00 0.00 0.00 63 1006.8
20260904004516 85 360 1.0 10.0 0.00 0.00 0.00 60 1006.5
20260904003020 88 346 5.0 12.0 0.00 0.00 0.00 55 1006.1
20260904001529 89 10 2.0 7.0 0.00 0.00 0.00 49 1005.7
20260904000014 91 40 5.0 11.0 0.00 0.00 0.00 45 1005.7
20260903234513 92 355 3.0 16.0 0.00 0.00 0.00 39 1005.3
20260903233024 93 302 4.0 12.0 0.00 0.00 0.00 39 1005.0
20260903231528 95 315 5.0 10.0 0.00 0.00 0.00 34 1004.9
20260903230031 96 263 4.0 9.0 0.00 0.00 0.00 30 1004.6
20260903224534 96 265 3.0 9.0 0.00 0.00 0.00 31 1004.7
20260903223024 96 241 3.0 10.0 0.00 0.00 0.00 29 1004.7
20260903221531 95 254 4.0 10.0 0.00 0.00 0.00 46 1004.6
20260903220030 94 256 2.0 12.0 0.00 0.00 0.00 47 1004.4
20260903214521 94 219 4.0 13.0 0.00 0.00 0.00 47 1004.3
20260903213035 94 207 3.0 8.0 0.00 0.00 0.00 47 1004.4
20260903211540 94 221 5.0 12.0 0.00 0.00 0.00 47 1004.3